Hearne, TX

8:49 PM CST on November 22, 2019 (GMT -0600)
Hearne

Weather History for KLHB - September, 2019

Change the Weather History Date:

Wednesday, September 18, 2019

  Actual Average (WUND) Record (WUND)
Temperature  
Mean Temperature 82 °F -  
Max Temperature 91 °F - - (-1)
Min Temperature 74 °F - - (-1)
Cooling Degree Days 16    
Growing Degree Days 32 (Base 50)    
Moisture  
Dew Point 73 °F    
Average Humidity 79    
Maximum Humidity 94    
Minimum Humidity 57    
Precipitation  
Precipitation 0.00 in - - ()
Sea Level Pressure  
Sea Level Pressure 29.88 in    
Wind  
Wind Speed 5 mph ()    
Max Wind Speed 13 mph    
Max Gust Speed -    
Visibility 9.8 miles    
Events Thunderstorm    
Averages and records for this station are not official NWS values.
T = Trace of Precipitation, MM = Missing Value Source: Averaged Metar Reports

Daily Weather History Graph

Daily Weather History Graph

Search for Another Location

Airport or City:

Astronomy

Sep. 18, 2019 Rise Set
Actual Time 7:12 AM CDT 7:28 PM CDT
Civil Twilight 6:48 AM CDT 7:52 PM CDT
Nautical Twilight 6:19 AM CDT 8:20 PM CDT
Astronomical Twilight 5:51 AM CDT 8:49 PM CDT
Moon 10:19 PM CDT (9/18) 11:01 AM CDT (9/18)
Length of Visible Light 13h 04m
Length of Day
12h 16m
Waning Gibbous, 82% of the Moon is Illuminated
Sep 18
Waning Gibbous
Sep 21
Last Quarter
Sep 28
New
Oct 5
First Quarter
Oct 13
Full

Hourly Weather History & Observations

Time (CDT) Temp. Heat Index Dew Point Humidity Pressure Visibility Wind Dir Wind Speed Gust Speed Precip Events Conditions
12:15 AM 76.6 °F - 72.7 °F 87% 29.90 in 10.0 mi NNE 5.8 mph - N/A   Clear
12:35 AM 76.5 °F - 72.7 °F 88% 29.89 in 10.0 mi NE 3.5 mph - N/A   Clear
12:55 AM 75.9 °F - 72.5 °F 89% 29.89 in 10.0 mi North 3.5 mph - N/A   Clear
1:15 AM 75.4 °F - 72.5 °F 91% 29.89 in 10.0 mi North 3.5 mph - N/A   Clear
1:35 AM 75.2 °F - 72.5 °F 91% 29.89 in 10.0 mi Calm Calm - N/A   Clear
1:55 AM 74.7 °F - 72.1 °F 92% 29.89 in 10.0 mi WNW 3.5 mph - N/A   Clear
2:15 AM 74.7 °F - 72.3 °F 92% 29.89 in 10.0 mi NW 3.5 mph - N/A   Clear
2:35 AM 74.3 °F - 72.1 °F 93% 29.88 in 10.0 mi WNW 4.6 mph - N/A   Scattered Clouds
2:55 AM 74.3 °F - 72.0 °F 92% 29.87 in 10.0 mi WNW 5.8 mph - N/A   Scattered Clouds
3:15 AM 74.5 °F - 72.0 °F 92% 29.88 in 10.0 mi NW 5.8 mph - N/A   Scattered Clouds
3:35 AM 74.3 °F - 72.0 °F 92% 29.87 in 10.0 mi NW 5.8 mph - N/A   Mostly Cloudy
3:55 AM 74.3 °F - 72.1 °F 93% 29.87 in 10.0 mi NW 4.6 mph - N/A   Overcast
4:15 AM 74.7 °F - 72.3 °F 92% 29.87 in 10.0 mi NNW 5.8 mph - N/A   Overcast
4:35 AM 75.0 °F - 72.5 °F 92% 29.87 in 10.0 mi NNW 5.8 mph - N/A   Overcast
4:55 AM 75.2 °F - 72.5 °F 91% 29.87 in 10.0 mi NNW 5.8 mph - N/A   Overcast
5:15 AM 74.8 °F - 72.5 °F 92% 29.86 in 10.0 mi NNW 5.8 mph - N/A   Overcast
5:35 AM 75.2 °F - 72.5 °F 91% 29.87 in 10.0 mi NNW 5.8 mph - N/A   Overcast
5:55 AM 75.2 °F - 72.5 °F 91% 29.87 in 10.0 mi NNW 4.6 mph - N/A   Overcast
6:15 AM 75.4 °F - 72.7 °F 91% 29.88 in 10.0 mi NW 4.6 mph - N/A   Overcast
6:35 AM 75.4 °F - 72.7 °F 91% 29.89 in 10.0 mi NNW 4.6 mph - N/A   Overcast
6:55 AM 75.4 °F - 73.0 °F 92% 29.89 in 7.0 mi NW 4.6 mph - N/A   Overcast
7:15 AM 74.8 °F - 73.0 °F 94% 29.89 in 7.0 mi NW 5.8 mph - N/A   Overcast
7:35 AM 74.7 °F - 72.9 °F 94% 29.89 in 10.0 mi NW 5.8 mph - N/A   Overcast
7:55 AM 75.2 °F - 73.0 °F 93% 29.89 in 10.0 mi NW 6.9 mph - N/A   Overcast
8:15 AM 75.6 °F - 73.0 °F 92% 29.90 in 10.0 mi NW 6.9 mph - N/A   Overcast
8:35 AM 76.1 °F - 73.4 °F 91% 29.90 in 10.0 mi NNW 8.1 mph - N/A   Overcast
8:55 AM 75.6 °F - 73.6 °F 94% 29.91 in 2.5 mi NW 6.9 mph - N/A   Overcast
9:10 AM 75.7 °F - 73.9 °F 94% 29.91 in 10.0 mi NW 6.9 mph - N/A   Overcast
9:35 AM 76.6 °F - 74.1 °F 92% 29.91 in 10.0 mi NNW 4.6 mph - N/A   Overcast
9:55 AM 77.9 °F - 74.3 °F 89% 29.92 in 10.0 mi NW 5.8 mph - N/A   Overcast
10:15 AM 79.2 °F - 74.1 °F 84% 29.92 in 10.0 mi NNW 6.9 mph - N/A   Overcast
10:35 AM 80.4 °F 85.1 °F 73.6 °F 80% 29.92 in 10.0 mi NNW 6.9 mph - N/A   Overcast
10:55 AM 80.8 °F 85.6 °F 73.4 °F 78% 29.92 in 10.0 mi NNW 6.9 mph - N/A   Overcast
11:15 AM 81.0 °F 86.0 °F 73.4 °F 78% 29.92 in 10.0 mi NNW 6.9 mph - N/A   Overcast
11:35 AM 82.2 °F 88.0 °F 73.4 °F 75% 29.92 in 10.0 mi NNW 9.2 mph - N/A   Overcast
11:55 AM 83.1 °F 89.2 °F 73.4 °F 72% 29.92 in 10.0 mi NNW 9.2 mph - N/A   Overcast
12:15 PM 85.5 °F 92.2 °F 73.0 °F 66% 29.91 in 10.0 mi North 6.9 mph - N/A   Overcast
12:35 PM 84.9 °F 90.7 °F 72.1 °F 65% 29.91 in 10.0 mi North 8.1 mph - N/A   Overcast
12:55 PM 86.4 °F 93.4 °F 72.7 °F 64% 29.90 in 10.0 mi Calm Calm - N/A   Overcast
1:15 PM 86.2 °F 93.8 °F 73.4 °F 66% 29.90 in 10.0 mi West 9.2 mph - N/A   Overcast
1:35 PM 88.0 °F 95.1 °F 72.7 °F 60% 29.88 in 10.0 mi West 5.8 mph - N/A   Mostly Cloudy
1:55 PM 85.1 °F 91.5 °F 72.7 °F 66% 29.88 in 10.0 mi NW 11.5 mph - N/A   Mostly Cloudy
2:15 PM 87.1 °F 94.1 °F 72.7 °F 62% 29.88 in 10.0 mi NW 10.4 mph - N/A   Overcast
2:35 PM 88.5 °F 95.8 °F 72.5 °F 59% 29.87 in 10.0 mi WNW 8.1 mph - N/A   Overcast
2:55 PM 88.2 °F 95.5 °F 72.5 °F 60% 29.87 in 10.0 mi WNW 8.1 mph - N/A   Overcast
3:15 PM 89.8 °F 98.1 °F 73.0 °F 58% 29.86 in 10.0 mi West 5.8 mph - N/A   Mostly Cloudy
3:35 PM 85.8 °F 93.0 °F 73.4 °F 66% 29.86 in 10.0 mi North 12.7 mph - N/A   Overcast
3:55 PM 85.6 °F 92.2 °F 72.7 °F 65% 29.86 in 10.0 mi North 5.8 mph - N/A   Overcast
4:15 PM 86.2 °F 92.2 °F 72.0 °F 62% 29.85 in 10.0 mi North 3.5 mph - N/A Thunderstorm Overcast
4:35 PM 87.3 °F 93.6 °F 72.0 °F 60% 29.85 in 10.0 mi North 5.8 mph - N/A   Overcast
4:55 PM 88.5 °F 94.9 °F 71.6 °F 57% 29.84 in 10.0 mi North 5.8 mph - N/A   Overcast
5:15 PM 87.8 °F 93.4 °F 70.9 °F 57% 29.84 in 10.0 mi North 5.8 mph - N/A   Overcast
5:35 PM 88.5 °F 94.9 °F 71.8 °F 57% 29.84 in 10.0 mi North 3.5 mph - N/A   Overcast
5:55 PM 87.8 °F 94.7 °F 72.5 °F 60% 29.84 in 10.0 mi North 3.5 mph - N/A   Mostly Cloudy
6:15 PM 87.4 °F 94.4 °F 72.5 °F 61% 29.85 in 10.0 mi North 5.8 mph - N/A   Overcast
6:35 PM 86.0 °F 93.4 °F 73.4 °F 66% 29.85 in 10.0 mi NE 3.5 mph - N/A   Overcast
6:55 PM 86.9 °F 94.5 °F 73.6 °F 64% 29.85 in 10.0 mi West 3.5 mph - N/A   Overcast
7:15 PM 85.6 °F 93.4 °F 73.9 °F 68% 29.85 in 10.0 mi Calm Calm - N/A   Overcast
7:35 PM 85.1 °F 92.6 °F 73.8 °F 69% 29.85 in 10.0 mi Calm Calm - N/A   Overcast
7:55 PM 84.4 °F 91.7 °F 73.9 °F 71% 29.85 in 10.0 mi NE 3.5 mph - N/A   Overcast
8:15 PM 83.1 °F 90.1 °F 74.3 °F 75% 29.85 in 10.0 mi NNE 3.5 mph - N/A   Scattered Clouds
8:35 PM 82.4 °F 88.7 °F 74.3 °F 76% 29.86 in 10.0 mi Calm Calm - N/A   Clear
8:55 PM 81.3 °F 86.8 °F 73.8 °F 78% 29.86 in 10.0 mi Calm Calm - N/A   Clear
9:15 PM 81.0 °F 86.2 °F 73.8 °F 79% 29.87 in 10.0 mi Calm Calm - N/A   Clear
9:35 PM 79.0 °F - 73.4 °F 83% 29.87 in 10.0 mi Calm Calm - N/A   Scattered Clouds
9:55 PM 79.9 °F - 73.4 °F 80% 29.88 in 10.0 mi Calm Calm - N/A   Mostly Cloudy
10:15 PM 79.7 °F - 73.4 °F 81% 29.88 in 10.0 mi SSE 3.5 mph - N/A   Overcast
10:35 PM 79.3 °F - 73.4 °F 82% 29.88 in 10.0 mi East 3.5 mph - N/A   Overcast
10:55 PM 78.8 °F - 72.9 °F 82% 29.89 in 10.0 mi Calm Calm - N/A   Overcast
11:15 PM 78.1 °F - 73.0 °F 84% 29.88 in 10.0 mi Calm Calm - N/A   Scattered Clouds
11:35 PM 77.9 °F - 73.4 °F 86% 29.89 in 10.0 mi Calm Calm - N/A   Clear
11:55 PM 77.4 °F - 73.4 °F 88% 29.88 in 10.0 mi Calm Calm - N/A   Clear